Location: Chuathbaluk
(61.5726°N, 159.2454°W)
Time: 13:13:47
(UTC+00:00)

ZACube-1 - Pass Details

Date: 24 January 2021
Orbit: 583 x 666 km, 97.6° (Epoch: 01 March)

Event Time Altitude Azimuth Distance (km) Brightness Sun altitude
Rises 04:30:11 0° 223° (SW) 2,968 ? -14.6°
Reaches altitude 10° 04:33:31 10° 250° (WSW) 2,077 ? -15.0°
Maximum altitude 04:35:47 14° 280° (W) 1,861 ? -15.2°
Drops below altitude 10° 04:38:03 10° 310° (NW) 2,099 ? -15.5°
Sets 04:41:28 0° 337° (NNW) 3,024 ? -15.9°
